ZAREMBO AK US current weather conditions

sailwx.info

Wind from 241 at 1 knots gusting 3

Air temperature 6.1° C
Dewpoint 5.4° C

Last reported at 2014-Oct-23 01:55 UTC.
Time now 2014-Oct-23 03:45 UTC

Location: N 56°18' W 132°51'.
View on Google Maps.

See reports from other nearby stations

  
Tides and Currents Weather Stations Pressure Air Temp Water Temp Dewpoint Dewpoint Depression Visibility Wind Speed Wind Dir Waves Ship Positions
date/time (UTC)wind fromknots sea level pressurealtimeterstation pressurevisibilityair tempwater tempwave heightnotes
2014-Oct-23 01:55 241 1 gusting 3 6.1
2014-Oct-23 00:55 062 1 gusting 9 7.2
2014-Oct-22 23:55 252 5 gusting 9 8.3
2014-Oct-22 22:55 236 4 gusting 12 8.3
2014-Oct-22 21:55 261 6 gusting 12 7.8
2014-Oct-22 20:55 276 3 gusting 13 10.0
2014-Oct-22 19:55 355 7 gusting 13 8.9
2014-Oct-22 18:55 340 7 gusting 16 8.3
2014-Oct-22 17:55 331 8 gusting 18 7.8
2014-Oct-22 16:55 335 6 gusting 22 7.2
2014-Oct-22 15:55 331 11 gusting 25 7.2
2014-Oct-22 14:55 342 11 gusting 22 7.2
2014-Oct-22 13:55 331 9 gusting 26 7.8
2014-Oct-22 12:55 318 10 gusting 21 7.2
2014-Oct-22 11:55 313 7 gusting 20 7.2
2014-Oct-22 10:55 298 8 gusting 21 6.7
2014-Oct-22 09:55 306 6 gusting 19 7.2
2014-Oct-22 08:55 299 7 gusting 19 7.8
2014-Oct-22 07:55 280 7 gusting 20 7.2
2014-Oct-22 06:55 288 9 gusting 20 6.7
2014-Oct-22 05:55 254 6 gusting 15 6.7
2014-Oct-22 04:55 246 6 gusting 18 7.2
2014-Oct-22 03:55 296 8 gusting 22 6.7
2014-Oct-22 02:55 296 10 gusting 27 6.7
2014-Oct-22 01:55 286 6 gusting 16 6.7
2014-Oct-22 00:55 297 8 gusting 19 6.7
2014-Oct-21 23:55 298 5 gusting 18 7.2
2014-Oct-21 22:55 260 10 gusting 19 8.3
2014-Oct-21 21:55 277 7 gusting 15 7.8
2014-Oct-21 20:55 260 7 gusting 19 7.8
2014-Oct-21 19:55 256 8 gusting 18 8.3
2014-Oct-21 18:55 246 11 gusting 22 7.2
2014-Oct-21 17:55 281 7 gusting 18 7.8
2014-Oct-21 16:55 263 8 gusting 19 7.8
2014-Oct-21 15:55 262 7 gusting 17 7.8
2014-Oct-21 14:55 249 10 gusting 19 7.8
2014-Oct-21 13:55 253 10 gusting 18 7.2
2014-Oct-21 12:55 247 12 gusting 19 7.8
2014-Oct-21 11:55 239 10 gusting 18 7.2
2014-Oct-21 10:55 248 8 gusting 13 7.2
2014-Oct-21 09:55 251 7 gusting 13 7.2
2014-Oct-21 08:55 233 6 gusting 12 6.7
2014-Oct-21 07:55 256 5 gusting 7 6.1
2014-Oct-21 06:55 270 5 gusting 9 6.1
2014-Oct-21 05:55 278 4 gusting 7 5.6
2014-Oct-21 04:55 269 2 gusting 4 5.0
2014-Oct-21 03:55 218 1 gusting 5 5.6